STARLINK-11297 [DTC]

Last updated on Fri Oct 04 2024 00:02:04 GMT+0000 (Coordinated Universal Time)

1 61060U 24164L 24277.58334491 .00045263 00000+0 27960-3 0 9995 2 61060 53.1606 5.3832 0001059 98.9073 203.4105 15.76685916 4304
UTC large
Height (km)
Speed (km/s)
/
Latitude / Longitude
Inclination (degrees)
Orbital Period (minutes)
Azimuth
Elevation
Range (km)
Doppler Factor

Next 0 passes for location: London (51.5072 / 0.1276)

Sorry there are no passes over London.